Weather History for Hayward, CA

Change the Weather History Date:

Monday, July 22, 2013

  Actual Average Record
Temperature  
Mean Temperature 65 °F 65 °F  
Max Temperature 73 °F 73 °F 105 °F (2006)
Min Temperature 56 °F 58 °F 56 °F (2010)
Degree Days  
Heating Degree Days 0    
Month to date heating degree days 14  
Since 1 June heating degree days 61  
Since 1 July heating degree days 14  
Cooling Degree Days 0    
Month to date cooling degree days 44  
Year to date cooling degree days 144  
Since 1 June cooling degree days 97  
Growing Degree Days 13 (Base 50)    
Moisture  
Dew Point 56 °F    
Average Humidity 77    
Maximum Humidity 93    
Minimum Humidity 61    
Precipitation  
Precipitation 0.00 in - 0.00 in (2015)
Month to date precipitation 0.00  
Year to date precipitation 1.49  
Since 1 July precipitation 0.00  
Sea Level Pressure  
Sea Level Pressure 29.95 in    
Wind  
Wind Speed 7 mph (NW)    
Max Wind Speed 14 mph    
Max Gust Speed 17 mph    
Visibility 10 miles    
Events      
T = Trace of Precipitation, MM = Missing Value Source: NWS Daily Summary

Daily Weather History Graph

Daily Weather History Graph

Search for Another Location

Airport:

Trip Planner

Search our weather history database for the weather conditions in past years. The results will help you decide how hot, cold, wet, or windy it might be!

Date:

Astronomy

Jul. 22, 2013 Rise Set
Actual Time 6:04 AM PDT 8:25 PM PDT
Civil Twilight 5:34 AM PDT 8:54 PM PDT
Nautical Twilight 4:57 AM PDT 9:31 PM PDT
Astronomical Twilight 4:17 AM PDT 10:11 PM PDT
Moon 8:17 PM PDT (7/22) 6:05 AM PDT (7/22)
Length of Visible Light 15h 20m
Length of Day
14h 20m
Full, 100% of the Moon is Illuminated
Jul 22
Full
Jul 29
Last Quarter
Aug 6
New
Aug 14
First Quarter
Aug 20
Full

Hourly Weather History & Observations

Time (PDT) Temp. Dew Point Humidity Pressure Visibility Wind Dir Wind Speed Gust Speed Precip Events Conditions
12:47 AM 55.4 °F 53.6 °F 94% 29.89 in 10.0 mi NNW 9.2 mph - N/A   Partly Cloudy
12:54 AM 55.9 °F 53.1 °F 90% 29.92 in 10.0 mi NNW 8.1 mph - N/A   Partly Cloudy
1:40 AM 55.4 °F 53.6 °F 94% 29.90 in 10.0 mi NNW 5.8 mph - N/A   Mostly Cloudy
1:54 AM 55.9 °F 54.0 °F 93% 29.93 in 10.0 mi NW 6.9 mph - N/A   Mostly Cloudy
2:54 AM 57.0 °F 54.0 °F 89% 29.92 in 10.0 mi North 6.9 mph - N/A   Overcast
3:54 AM 57.0 °F 55.0 °F 93% 29.92 in 10.0 mi North 8.1 mph - N/A   Overcast
4:54 AM 57.0 °F 55.0 °F 93% 29.93 in 8.0 mi North 6.9 mph - N/A   Overcast
5:54 AM 57.9 °F 55.0 °F 90% 29.95 in 10.0 mi North 4.6 mph - N/A   Overcast
6:54 AM 57.9 °F 55.9 °F 93% 29.97 in 8.0 mi Calm Calm - N/A   Overcast
7:54 AM 60.1 °F 55.9 °F 86% 29.97 in 9.0 mi Calm Calm - N/A   Overcast
8:35 AM 60.8 °F 55.4 °F 82% 29.94 in 10.0 mi North 4.6 mph - N/A   Mostly Cloudy
8:54 AM 64.0 °F 57.0 °F 78% 29.97 in 10.0 mi Calm Calm - N/A   Mostly Cloudy
9:35 AM 66.2 °F 57.2 °F 73% 29.94 in 10.0 mi NW 4.6 mph - N/A   Scattered Clouds
9:54 AM 66.0 °F 57.9 °F 75% 29.97 in 10.0 mi WNW 6.9 mph - N/A   Clear
10:54 AM 66.0 °F 57.0 °F 73% 29.98 in 10.0 mi West 10.4 mph - N/A   Clear
11:54 AM 69.1 °F 57.0 °F 65% 29.96 in 10.0 mi West 11.5 mph - N/A   Clear
12:54 PM 70.0 °F 57.9 °F 65% 29.96 in 10.0 mi West 11.5 mph - N/A   Clear
1:54 PM 70.0 °F 57.9 °F 65% 29.96 in 10.0 mi WNW 12.7 mph - N/A   Clear
2:54 PM 71.1 °F 57.9 °F 63% 29.95 in 10.0 mi WNW 9.2 mph - N/A   Clear
3:54 PM 70.0 °F 57.9 °F 65% 29.95 in 10.0 mi WNW 10.4 mph - N/A   Overcast
4:54 PM 70.0 °F 55.9 °F 61% 29.95 in 10.0 mi NW 8.1 mph - N/A   Clear
5:54 PM 66.0 °F 55.9 °F 70% 29.96 in 10.0 mi NNW 9.2 mph - N/A   Clear
6:54 PM 66.0 °F 55.9 °F 70% 29.97 in 10.0 mi NW 9.2 mph - N/A   Overcast
7:54 PM 64.9 °F 55.9 °F 73% 29.96 in 10.0 mi NNW 6.9 mph - N/A   Clear
8:54 PM 64.0 °F 55.9 °F 75% 29.97 in 10.0 mi NNW 4.6 mph - N/A   Clear
9:54 PM 63.0 °F 55.9 °F 78% 29.99 in 10.0 mi NNW 8.1 mph - N/A   Mostly Cloudy
10:54 PM 61.0 °F 55.9 °F 83% 29.99 in 10.0 mi NW 6.9 mph - N/A   Clear
11:54 PM 61.0 °F 55.0 °F 81% 29.98 in 10.0 mi NNW 5.8 mph - N/A   Clear